Location: Newark
(38.7000°N, 9.1833°W)
Time: 11:13:55
(UTC+00:00)

Envisat - Pass Details

Date: 01 November 2019
Orbit: 764 x 766 km, 98.1° (Epoch: 20 November)

Event Time Altitude Azimuth Distance (km) Brightness Sun altitude
Rises 20:02:36 0° 213° (SSW) 3,219 6.6 -28.9°
Reaches altitude 10° 20:06:02 10° 238° (WSW) 2,298 6.1 -29.5°
Maximum altitude 20:08:40 14° 269° (W) 2,027 6.0 -30.1°
Drops below altitude 10° 20:11:18 10° 301° (WNW) 2,306 6.2 -30.6°
Sets 20:14:47 0° 326° (NW) 3,238 6.8 -31.2°
